Regional Weather Roundup
Issued by NWS Memphis, TN

Home | Current Version | Previous Version | Text Only | Print | Product List | Glossary On
Versions: 1 2 3 4 5 6 7 8 9 10 11 12 13 14 15 16 17 18 19 20 21 22 23 24 25 26 27 28 29 30 31 32 33 34 35 36 37 38 39 40 41 42 43 44 45 46 47 48 49 50
000
ASUS44 KMEG 302310
RWRMEG
MEMPHIS CWA HOURLY WEATHER ROUNDUP
NATIONAL WEATHER SERVICE MEMPHIS TN
600 PM CDT SAT MAY 30 2015

...WEST TENNESSEE...

CITY           SKY/WX    TMP DP  RH WIND       PRES   REMARKS
MEMPHIS INTL   PTSUNNY   82  67  60 W6        29.98F
NWS MEMPHIS      N/A     82 N/A N/A MISG        N/A
JACKSON        PTSUNNY   75  70  84 S8        29.98S
LEXINGTON      SUNNY     79  70  73 S8        29.97F
DYERSBURG      PTSUNNY   77  57  50 SW10      29.98S
PARIS          MOSUNNY   72  64  78 SW15      29.99R


...EASTERN ARKANSAS...

CITY           SKY/WX    TMP DP  RH WIND       PRES   REMARKS
JONESBORO      PTSUNNY   80  67  64 SW10      29.96S
WEST MEMPHIS   PTSUNNY   80  68  66 SW3       29.96F
BATESVILLE     MOSUNNY   82  66  57 NW7       29.96S
NEWPORT        MOSUNNY   84  68  58 W7        29.96F
WALNUT RIDGE   MOSUNNY   79  66  65 NE13      29.96S
BLYTHEVILLE    CLOUDY    78  70  76 NW8       29.97S
SEARCY         PTSUNNY   82  69  64 VRB3      29.97F
STUTTGART      PTSUNNY   79  66  65 W3        29.97R
PINE BLUFF     CLOUDY    79  65  62 NW3       29.97S
MONTICELLO     PTSUNNY   81  72  74 SW5       29.97F


...NORTH MISSISSIPPI...

CITY           SKY/WX    TMP DP  RH WIND       PRES   REMARKS
TUPELO         TSTM      69  62  78 NW7G17    30.04R
OXFORD         CLOUDY    66  64  94 SE3       30.03S
OLIVE BRANCH   PTSUNNY   81  70  69 SW12      29.98F
TUNICA         PTSUNNY   81  66  61 W5        29.98F
CLARKSDALE       N/A     75  72  88 CALM      29.98S
CORINTH        CLOUDY    75  66  73 S7        30.00S
GREENWOOD      CLOUDY    70  66  87 E6        30.02R FOG
COLUMBUS       CLOUDY    77  70  80 NW5       30.04R
STARKVILLE     LGT RAIN  70  68  94 W7        30.07R
GOLDEN TRIANGL PTSUNNY   79  68  69 NW7       30.03R


...SOUTHEAST MISSOURI...

CITY           SKY/WX    TMP DP  RH WIND       PRES   REMARKS
WEST PLAINS    PTSUNNY   75  64  68 NW13G18   30.00R
POPLAR BLUFF   MOSUNNY   77  66  68 W8        29.93F
CAPE GIRARDEAU CLOUDY    70  69  97 W12       29.92R


...NORTHWEST ALABAMA...

CITY           SKY/WX    TMP DP  RH WIND       PRES   REMARKS
MUSCLE SHOALS  LGT RAIN  73  68  84 SW5       30.05S


...MIDDLE TENNESSEE...

CITY           SKY/WX    TMP DP  RH WIND       PRES   REMARKS
NASHVILLE      MOSUNNY   81  68  64 S10       29.99F
CLARKSVILLE    PTSUNNY   69  66  90 S3        29.98F
COLUMBIA       MOSUNNY   77  70  78 S9        30.00F


...WESTERN KENTUCKY...

CITY           SKY/WX    TMP DP  RH WIND       PRES   REMARKS
PADUCAH        LGT RAIN  71  68  90 SW10G21   29.91R
FORT CAMPBELL  PTSUNNY   69  65  88 S9        29.97F


...CENTRAL ARKANSAS...

CITY           SKY/WX    TMP DP  RH WIND       PRES   REMARKS
LITTLE ROCK    CLOUDY    81  64  56 NW10      29.96R


SKY/WX REPORTED AS FAIR MEANS FEW OR NO CLOUDS BELOW
12 THOUSAND FEET.



USA.gov is the U.S. government's official web portal to all federal, state and local government web resources and services.